Weather History for Winona, MN

Change the Weather History Date:

Friday, October 11, 2013

  Actual Average Record
Temperature  
Mean Temperature 64 °F -  
Max Temperature 75 °F 61 °F 78 °F (1997)
Min Temperature 53 °F 39 °F 28 °F (2000)
Degree Days  
Heating Degree Days 1    
Growing Degree Days 14 (Base 50)    
Moisture  
Dew Point 52 °F    
Average Humidity 68    
Maximum Humidity 94    
Minimum Humidity 47    
Precipitation  
Precipitation 0.00 in - - ()
Sea Level Pressure  
Sea Level Pressure 29.86 in    
Wind  
Wind Speed 6 mph (SSE)    
Max Wind Speed 20 mph    
Max Gust Speed 32 mph    
Visibility 10 miles    
Events      
Averages and records for this station are not official NWS values.
T = Trace of Precipitation, MM = Missing Value Source: NWS Daily Summary

Daily Weather History Graph

Daily Weather History Graph

Search for Another Location

Airport:

Trip Planner

Search our weather history database for the weather conditions in past years. The results will help you decide how hot, cold, wet, or windy it might be!

Date:

Astronomy

Oct. 11, 2013 Rise Set
Actual Time 7:16 AM CDT 6:29 PM CDT
Civil Twilight 6:47 AM CDT 6:58 PM CDT
Nautical Twilight 6:14 AM CDT 7:31 PM CDT
Astronomical Twilight 5:40 AM CDT 8:05 PM CDT
Moon 2:05 PM CDT (10/11) No Moon Set
Length of Visible Light 12h 10m
Length of Day
11h 12m
Waxing Crescent, 47% of the Moon is Illuminated
Oct 11
Waxing Crescent
Oct 11
First Quarter
Oct 18
Full
Oct 26
Last Quarter
Nov 3
New

Hourly Weather History & Observations

Time (CDT) Temp. Dew Point Humidity Pressure Visibility Wind Dir Wind Speed Gust Speed Precip Events Conditions
12:17 AM 53.6 °F 50.0 °F 88% 29.95 in 10.0 mi Calm Calm - N/A   Clear
12:36 AM 55.4 °F 50.0 °F 82% 29.95 in 10.0 mi Calm Calm - N/A   Clear
12:56 AM 55.4 °F 50.0 °F 82% 29.95 in 10.0 mi Calm Calm - N/A   Clear
1:17 AM 53.6 °F 50.0 °F 88% 29.96 in 10.0 mi Calm Calm - N/A   Clear
1:36 AM 53.6 °F 50.0 °F 88% 29.96 in 10.0 mi Calm Calm - N/A   Clear
1:56 AM 53.6 °F 50.0 °F 88% 29.97 in 10.0 mi Calm Calm - N/A   Clear
2:17 AM 55.4 °F 50.0 °F 82% 29.97 in 10.0 mi Calm Calm - N/A   Clear
2:36 AM 53.6 °F 50.0 °F 88% 29.97 in 10.0 mi SSE 3.5 mph - N/A   Clear
2:56 AM 53.6 °F 50.0 °F 88% 29.96 in 10.0 mi SSE 4.6 mph - N/A   Clear
3:17 AM 53.6 °F 50.0 °F 88% 29.95 in 10.0 mi Calm Calm - N/A   Clear
3:36 AM 53.6 °F 50.0 °F 88% 29.96 in 10.0 mi Calm Calm - N/A   Clear
3:56 AM 53.6 °F 50.0 °F 88% 29.95 in 10.0 mi Calm Calm - N/A   Clear
4:17 AM 53.6 °F 50.0 °F 88% 29.96 in 10.0 mi Calm Calm - N/A   Clear
4:36 AM 53.6 °F 51.8 °F 94% 29.95 in 10.0 mi Calm Calm - N/A   Clear
4:56 AM 53.6 °F 51.8 °F 94% 29.95 in 10.0 mi South 3.5 mph - N/A   Clear
5:17 AM 53.6 °F 51.8 °F 94% 29.94 in 10.0 mi SSE 6.9 mph - N/A   Clear
5:36 AM 53.6 °F 51.8 °F 94% 29.95 in 10.0 mi SSE 5.8 mph - N/A   Clear
5:56 AM 53.6 °F 51.8 °F 94% 29.96 in 10.0 mi SSE 5.8 mph - N/A   Clear
6:17 AM 53.6 °F 51.8 °F 94% 29.96 in 10.0 mi SSE 4.6 mph - N/A   Clear
6:37 AM 53.6 °F 51.8 °F 94% 29.96 in 10.0 mi South 3.5 mph - N/A   Clear
6:56 AM 53.6 °F 51.8 °F 94% 29.96 in 10.0 mi Calm Calm - N/A   Clear
7:16 AM 53.6 °F 51.8 °F 94% 29.96 in 10.0 mi South 3.5 mph - N/A   Clear
7:36 AM 53.6 °F 51.8 °F 94% 29.96 in 10.0 mi Calm Calm - N/A   Scattered Clouds
7:56 AM 53.6 °F 51.8 °F 94% 29.96 in 10.0 mi SSE 5.8 mph - N/A   Scattered Clouds
8:17 AM 53.6 °F 51.8 °F 94% 29.95 in 10.0 mi SSE 6.9 mph - N/A   Scattered Clouds
8:36 AM 55.4 °F 53.6 °F 94% 29.95 in 10.0 mi SE 6.9 mph - N/A   Clear
8:56 AM 55.4 °F 53.6 °F 94% 29.94 in 10.0 mi SE 8.1 mph - N/A   Clear
9:17 AM 59.0 °F 53.6 °F 82% 29.94 in 10.0 mi SE 9.2 mph - N/A   Clear
9:36 AM 59.0 °F 53.6 °F 82% 29.94 in 10.0 mi SE 10.4 mph - N/A   Clear
9:56 AM 60.8 °F 53.6 °F 77% 29.93 in 10.0 mi SE 9.2 mph - N/A   Clear
10:17 AM 62.6 °F 53.6 °F 72% 29.92 in 10.0 mi SE 8.1 mph - N/A   Clear
10:36 AM 62.6 °F 53.6 °F 72% 29.92 in 10.0 mi SE 10.4 mph - N/A   Clear
10:56 AM 66.2 °F 55.4 °F 68% 29.90 in 10.0 mi ESE 8.1 mph - N/A   Clear
11:17 AM 69.8 °F 57.2 °F 64% 29.89 in 10.0 mi SE 11.5 mph - N/A   Clear
11:36 AM 69.8 °F 55.4 °F 60% 29.88 in 10.0 mi SE 12.7 mph - N/A   Clear
11:56 AM 71.6 °F 55.4 °F 57% 29.86 in 10.0 mi SE 16.1 mph 21.9 mph N/A   Clear
12:17 PM 73.4 °F 55.4 °F 53% 29.86 in 10.0 mi South 9.2 mph 26.5 mph N/A   Clear
12:36 PM 73.4 °F 55.4 °F 53% 29.85 in 10.0 mi SSE 19.6 mph 28.8 mph N/A   Clear
12:56 PM 73.4 °F 53.6 °F 50% 29.84 in 10.0 mi SSE 12.7 mph 28.8 mph N/A   Clear
1:16 PM 73.4 °F 53.6 °F 50% 29.82 in 10.0 mi South 11.5 mph 28.8 mph N/A   Clear
1:36 PM 73.4 °F 53.6 °F 50% 29.81 in 10.0 mi SSE 19.6 mph 32.2 mph N/A   Clear
1:57 PM 73.4 °F 53.6 °F 50% 29.81 in 10.0 mi SSE 13.8 mph 27.6 mph N/A   Clear
2:16 PM 73.4 °F 51.8 °F 47% 29.79 in 10.0 mi SSE 10.4 mph 21.9 mph N/A   Clear
2:36 PM 73.4 °F 51.8 °F 47% 29.79 in 10.0 mi SSE 10.4 mph 23.0 mph N/A   Clear
2:57 PM 73.4 °F 51.8 °F 47% 29.78 in 10.0 mi SSE 16.1 mph 27.6 mph N/A   Clear
3:16 PM 75.2 °F 53.6 °F 47% 29.77 in 10.0 mi SE 19.6 mph 26.5 mph N/A   Clear
3:36 PM 73.4 °F 51.8 °F 47% 29.78 in 10.0 mi SE 16.1 mph 29.9 mph N/A   Clear
3:57 PM 73.4 °F 51.8 °F 47% 29.78 in 10.0 mi SSE 19.6 mph 27.6 mph N/A   Clear
4:16 PM 73.4 °F 51.8 °F 47% 29.78 in 10.0 mi SSE 15.0 mph 24.2 mph N/A   Clear
4:36 PM 73.4 °F 51.8 °F 47% 29.77 in 10.0 mi SSE 17.3 mph 24.2 mph N/A   Clear
4:56 PM 73.4 °F 51.8 °F 47% 29.77 in 10.0 mi SSE 9.2 mph 17.3 mph N/A   Clear
5:16 PM 73.4 °F 53.6 °F 50% 29.78 in 10.0 mi SSE 10.4 mph 21.9 mph N/A   Clear
5:37 PM 73.4 °F 53.6 °F 50% 29.77 in 10.0 mi SSE 12.7 mph - N/A   Scattered Clouds
5:56 PM 73.4 °F 53.6 °F 50% 29.77 in 10.0 mi SSE 12.7 mph 23.0 mph N/A   Scattered Clouds
6:16 PM 71.6 °F 51.8 °F 50% 29.78 in 10.0 mi SSE 12.7 mph - N/A   Clear
6:37 PM 71.6 °F 51.8 °F 50% 29.78 in 10.0 mi SE 11.5 mph - N/A   Mostly Cloudy
6:56 PM 71.6 °F 51.8 °F 50% 29.78 in 10.0 mi SE 11.5 mph - N/A   Overcast
7:16 PM 71.6 °F 53.6 °F 53% 29.78 in 10.0 mi SSE 8.1 mph - N/A   Overcast
7:37 PM 71.6 °F 51.8 °F 50% 29.78 in 10.0 mi SSE 10.4 mph 17.3 mph N/A   Overcast
7:56 PM 71.6 °F 51.8 °F 50% 29.78 in 10.0 mi SSE 9.2 mph 16.1 mph N/A   Overcast
8:16 PM 69.8 °F 51.8 °F 53% 29.79 in 10.0 mi SSE 10.4 mph - N/A   Mostly Cloudy
8:37 PM 71.6 °F 51.8 °F 50% 29.78 in 10.0 mi SSE 11.5 mph - N/A   Overcast
8:56 PM 71.6 °F 51.8 °F 50% 29.78 in 10.0 mi SSE 10.4 mph 19.6 mph N/A   Overcast
9:16 PM 71.6 °F 51.8 °F 50% 29.78 in 10.0 mi SSE 8.1 mph 16.1 mph N/A   Overcast
9:37 PM 69.8 °F 51.8 °F 53% 29.77 in 10.0 mi SSE 10.4 mph 16.1 mph N/A   Mostly Cloudy
9:56 PM 71.6 °F 53.6 °F 53% 29.77 in 10.0 mi SSE 12.7 mph 19.6 mph N/A   Mostly Cloudy
10:16 PM 69.8 °F 51.8 °F 53% 29.77 in 10.0 mi SSE 8.1 mph - N/A   Mostly Cloudy
10:36 PM 69.8 °F 51.8 °F 53% 29.77 in 10.0 mi South 5.8 mph - N/A   Scattered Clouds
10:56 PM 69.8 °F 51.8 °F 53% 29.77 in 10.0 mi South 8.1 mph 18.4 mph N/A   Scattered Clouds
11:17 PM 69.8 °F 51.8 °F 53% 29.77 in 10.0 mi SSE 8.1 mph - N/A   Scattered Clouds
11:36 PM 69.8 °F 51.8 °F 53% 29.77 in 10.0 mi South 5.8 mph - N/A   Scattered Clouds
11:56 PM 69.8 °F 51.8 °F 53% 29.77 in 10.0 mi South 6.9 mph - N/A   Scattered Clouds